Home > Weather > Nampula > Past weeks

Flag for Mozambique Past Weather in Nampula, Mozambique — Yesterday and Last 2 Weeks

Now
72 °F

Passing clouds.


Feels Like: 74 °F
Forecast: 61 / 79 °F
Wind: 17 mph from South

Location: Pemba Airport

Current Time: Aug 24, 2016 at 11:41:07 PM

Latest Report: Aug 24, 2016 at 11:00 PM


Visibility: N/A

Pressure: 30.09 "Hg

Humidity: 73%

Dew Point: 63 °F

Location of NampulaLocation

Past Weather in Nampula — Graph

°F

Nampula Temperature Yesterday

Maximum temperature yesterday: 84 °F (at 11:00 AM)
Minimum temperature yesterday: 75 °F (at 6:00 PM)
Average temperature yesterday: 78 °F

High & Low Weather Summary for the Past Weeks

 TemperatureHumidityPressure
High84 °F (Aug 17, 11:00 AM)100% (Aug 15, 7:00 AM)30.39 "Hg (Aug 15, 7:00 AM)
Low64 °F (Aug 11, 5:00 AM)40% (Aug 21, 11:00 AM)30.01 "Hg (Aug 19, 2:00 PM)
Average75 °F76%30.09 "Hg
* Reported Aug 10 1:00 AM — Aug 24 10:00 PM, Nampula, Weather by CustomWeather, © 2016

Note: Actual official high and low records may vary slightly from our data, if they occured in-between our weather recording intervals... More about our weather records

Advertising

Nampula Weather History for the Previous 24 Hours

Scroll right to see more
 ConditionsComfort  
Time TempWeatherWind HumidityBarometerVisibility
10:00 PM
Wed, Aug 24
73 °FPassing clouds.21 mph74%30.09 "HgN/A
9:00 PM75 °FPassing clouds.28 mph69%30.09 "HgN/A
7:00 PM77 °FPassing clouds.24 mph74%30.07 "HgN/A
5:00 PM77 °FPassing clouds.24 mph74%30.07 "HgN/A
4:00 PM79 °FPassing clouds.25 mph70%30.07 "HgN/A
3:00 PM81 °FPassing clouds.23 mph66%30.04 "HgN/A
2:00 PM81 °FPartly sunny.23 mph66%30.07 "HgN/A
1:00 PM82 °FPassing clouds.23 mph62%30.07 "HgN/A
12:00 PM81 °FPartly sunny.24 mph66%30.09 "HgN/A
11:00 AM81 °FPartly sunny.23 mph66%30.12 "HgN/A
9:00 AM79 °FPartly sunny.22 mph65%30.15 "HgN/A
8:00 AM77 °FPartly sunny.15 mph69%30.15 "HgN/A
7:00 AM72 °FScattered clouds.9 mph83%30.12 "HgN/A
6:00 AM70 °FPassing clouds.12 mph88%30.09 "HgN/A
3:00 AM72 °FPassing clouds.5 mph94%30.15 "HgN/A
1:00 AM73 °FPassing clouds.6 mph89%30.15 "HgN/A
Weather by CustomWeather, © 2016

See weather overviewHow to use our weather pages